Change the Weather History Date:

Thursday, March 6, 2014

  Actual Average Record
Temperature  
Mean Temperature 34 °F -  
Max Temperature 46 °F 49 °F 76 °F (1973)
Min Temperature 21 °F 31 °F 3 °F (2015)
Degree Days  
Heating Degree Days 32    
Moisture  
Dew Point 19 °F    
Average Humidity 61    
Maximum Humidity 85    
Minimum Humidity 39    
Precipitation  
Precipitation 0.00 in - - ()
Sea Level Pressure  
Sea Level Pressure 30.26 in    
Wind  
Wind Speed 8 mph (NE)    
Max Wind Speed 10 mph    
Max Gust Speed -    
Visibility 10 miles    
Events      
Averages and records for this station are not official NWS values.
T = Trace of Precipitation, MM = Missing Value Source: NWS Daily Summary

Daily Weather History Graph

Daily Weather History Graph

Search for Another Location

Airport or City:

Trip Planner

Search our weather history database for the weather conditions in past years. The results will help you decide how hot, cold, wet, or windy it might be!

Date:

Astronomy

Mar. 06, 2014 Rise Set
Actual Time 7:02 AM EST 6:35 PM EST
Civil Twilight 6:36 AM EST 7:02 PM EST
Nautical Twilight 6:05 AM EST 7:33 PM EST
Astronomical Twilight 5:34 AM EST 8:04 PM EST
Moon 10:12 AM EST (3/6) No Moon Set
Length of Visible Light 12h 26m
Length of Day
11h 32m
Waxing Crescent, 32% of the Moon is Illuminated
Mar 6
Waxing Crescent
Mar 8
First Quarter
Mar 16
Full
Mar 23
Last Quarter
Mar 30
New

Hourly Weather History & Observations

Time (EST) Temp. Windchill Dew Point Humidity Pressure Visibility Wind Dir Wind Speed Gust Speed Precip Events Conditions
12:53 AM 26.1 °F 17.6 °F 17.1 °F 69% 30.37 in 10.0 mi NE 8.1 mph - N/A   Clear
1:53 AM 25.0 °F 14.8 °F 16.0 °F 69% 30.35 in 10.0 mi NE 10.4 mph - N/A   Clear
2:53 AM 25.0 °F 15.5 °F 16.0 °F 69% 30.34 in 10.0 mi NE 9.2 mph - N/A   Clear
3:53 AM 24.1 °F 13.7 °F 15.1 °F 69% 30.33 in 10.0 mi NE 10.4 mph - N/A   Clear
4:53 AM 23.0 °F 13.1 °F 14.0 °F 68% 30.34 in 10.0 mi NE 9.2 mph - N/A   Clear
5:53 AM 21.9 °F 11.0 °F 14.0 °F 72% 30.34 in 10.0 mi NE 10.4 mph - N/A   Clear
6:53 AM 21.9 °F 11.7 °F 12.9 °F 68% 30.34 in 10.0 mi NE 9.2 mph - N/A   Clear
7:53 AM 21.9 °F 12.5 °F 12.0 °F 66% 30.35 in 10.0 mi NE 8.1 mph - N/A   Clear
8:53 AM 25.0 °F 14.8 °F 12.9 °F 60% 30.36 in 10.0 mi NE 10.4 mph - N/A   Clear
9:53 AM 28.0 °F 18.6 °F 14.0 °F 56% 30.33 in 10.0 mi ENE 10.4 mph - N/A   Clear
10:53 AM 32.0 °F 27.5 °F 16.0 °F 52% 30.32 in 10.0 mi Variable 4.6 mph - N/A   Clear
11:53 AM 37.0 °F 32.4 °F 19.0 °F 48% 30.28 in 10.0 mi NNE 5.8 mph - N/A   Clear
12:53 PM 39.9 °F 34.5 °F 19.9 °F 45% 30.25 in 10.0 mi NNE 8.1 mph - N/A   Clear
1:53 PM 44.1 °F 39.0 °F 21.0 °F 40% 30.22 in 10.0 mi NNE 9.2 mph - N/A   Clear
2:53 PM 45.0 °F 40.6 °F 21.9 °F 40% 30.19 in 10.0 mi NNE 8.1 mph - N/A   Clear
3:53 PM 46.9 °F - 23.0 °F 39% 30.17 in 10.0 mi ENE 6.9 mph - N/A   Clear
4:53 PM 46.0 °F 41.4 °F 25.0 °F 44% 30.16 in 10.0 mi ENE 9.2 mph - N/A   Clear
5:53 PM 43.0 °F 38.8 °F 25.0 °F 49% 30.17 in 10.0 mi ENE 6.9 mph - N/A   Clear
6:53 PM 39.0 °F 33.4 °F 25.0 °F 57% 30.17 in 10.0 mi ENE 8.1 mph - N/A   Clear
7:53 PM 39.0 °F 35.7 °F 25.0 °F 57% 30.16 in 10.0 mi NNE 4.6 mph - N/A   Clear
8:53 PM 33.1 °F 30.0 °F 25.0 °F 72% 30.17 in 10.0 mi NE 3.5 mph - N/A   Clear
9:53 PM 30.9 °F - 25.0 °F 79% 30.16 in 10.0 mi Calm Calm - N/A   Clear
10:53 PM 28.9 °F - 25.0 °F 85% 30.15 in 10.0 mi Calm Calm - N/A   Clear
11:53 PM 28.0 °F - 24.1 °F 85% 30.12 in 10.0 mi Calm Calm - N/A   Clear